Location: Kerguer�zec
(48.4509°N, 4.7600°W)
Time: 07:01:40
(UTC+00:00)

CZ-2C R/B - Pass Details

Date: 09 April 2020
Orbit: 785 x 870 km, 98.3° (Epoch: 01 June)

Event Time Altitude Azimuth Distance (km) Brightness Sun altitude
Rises 20:57:10 0° 12° (NNE) 3,290 6.1 -18.1°
Reaches altitude 10° 20:59:29 10° 11° (NNE) 2,357 5.3 -18.4°
Maximum altitude 21:04:40 77° 287° (WNW) 814 2.7 -19.1°
Drops below altitude 10° 21:09:52 10° 202° (SSW) 2,361 4.9 -19.8°
Sets 21:12:12 0° 201° (SSW) 3,296 5.6 -20.1°
